Starlink 32623

operational
NORAD ID: 62152 Int'l Des: 2024-224 Owner: SPXS Country: US Constellation: starlink
LEOCIRCULAR

Starlink 32623について

説明を読み込み中...

リアルタイム位置

3D地球を読み込み中...

次回通過

高度履歴

Altitude vs Time

uPlot chart will show altitude changes over time

軌道要素

1 62152U 24224P 25349.22296033 .00015067 00000-0 55579-3 0 9993
2 62152 42.9999 278.4460 0001511 260.0359 100.0322 15.27586688 59462
Epoch: Dec 15, 2025 • Age: 35 hours

現在のステータス

高度 482.2 km
速度 7.63 km/s
衛星直下点 10.41°N, 104.4°E
打ち上げ日 Nov 30, 2024
運用期間 1 years
タイプ internet

技術仕様

分類 Payload
質量 730.00 kg
乾燥質量 700.00 kg
総質量 730.00 kg
長さ 0.30 m
直径 4.10 m
スパン 29.00 m
形状 Box + pan
製造者 SPXS
バスタイプ Starlink V2M
フェーズステータス In Orbit
所有者/国 SPXS/US

大規模コンステレーション

Loading constellations...